[[{"header":{"parameterUnit":"m.s-1","parameterCategory":1,"la1":30.2991,"la2":30.254,"lo1":-89.0895,"lo2":-89.0444,"dy":0.0017,"dx":0.0017,"nx":28,"ny":28,"refTime":"2024-03-19T21:00:00:Z","depth":0,"parameterNumber":2,"parameterNumberName":"U-component_of_WINDS"},"data":[0,0,0,0,0,0,0,0,0,0,0,0,0,0,0,0,0,0,0,0,0,0,0,0,0,0,0,0,0,0,0,0,0,0,0,0,0,0,0,0,0,0,0,0,0,0,0,0,0,0,0,0,0,0,0,0,0,0,1.0256,1.0257,0,1.0391,1.0392,1.0394,1.0476,1.0477,1.0477,1.0478,1.0617,1.0621,1.0624,0,0,0,0,0,0,0,0,0,0,0,0,0,1.0071,1.0074,1.0256,1.0258,1.0259,1.039,1.0392,1.0394,1.0476,1.0477,1.0477,1.0478,1.0616,1.062,1.0624,0,0,0,0,0,0,0,0,0,0,0,0,0,1.0173,1.0075,1.0256,1.0316,1.0323,1.039,1.0392,1.0395,1.0476,1.0477,1.0477,1.0478,1.0615,1.062,1.0625,1.0643,0,0,1.064,1.0642,0,0,0,0,0,0,0,0,1.0167,1.018,1.0305,1.0312,1.032,1.0417,1.0379,1.0478,1.0476,1.0418,1.0478,1.0478,1.055,1.0561,1.0585,1.065,1.0656,1.064,1.0643,1.0646,1.0647,0,0,0,0,0,0,0,1.016,1.0175,1.0309,1.0307,1.0316,1.0337,1.0352,1.0398,1.0479,1.0423,1.0429,1.0444,1.0554,1.058,1.0589,1.0658,1.064,1.0645,1.0648,1.065,1.0744,1.0744,0,0,0,0,0,0,1.0143,1.0168,1.0305,1.0313,1.0243,1.034,1.0357,1.0385,1.0479,1.0494,1.0443,1.0447,1.0571,1.0583,1.0594,1.0621,1.0646,1.065,1.0653,1.0745,1.0744,1.0744,0,0,0,0,0,0,1.0139,1.0155,1.03,1.0243,1.0263,1.0342,1.0374,1.0388,1.0413,1.0494,1.0509,1.0454,1.0572,1.0587,1.063,1.0627,1.0653,1.0657,1.0745,1.0745,1.0744,1.0676,0,0,0,0,0,0,1.0133,1.0153,1.016,1.0242,1.0265,1.0333,1.0374,1.039,1.0421,1.0428,1.0508,1.0522,1.0573,1.0622,1.0635,1.0634,1.0661,1.0746,1.0745,1.0744,1.0679,1.0673,1.0668,0,0,0,0,0,1.0126,1.0136,1.016,1.0176,1.0276,1.0333,1.0346,1.0404,1.0421,1.0429,1.0481,1.052,1.0625,1.0626,1.0641,1.0642,1.0746,1.0745,1.0744,1.0681,1.0674,1.0668,0,0,0,0,0,0,1.0052,1.0148,1.0176,1.0212,1.0263,1.0346,1.0359,1.0395,1.0443,1.0447,1.0518,1.0536,1.0572,1.0612,1.061,1.0665,1.069,1.0692,1.0637,1.0631,1.0626,1.0615,1.0665,0,0,0,0,0,1.004,1.0077,1.0159,1.0183,1.0208,1.0278,1.0305,1.0345,1.0402,1.0424,1.048,1.0533,1.0579,1.0607,1.0654,1.0685,1.0703,1.0693,1.0688,1.0683,1.0683,1.0702,1.0698,1.074,1.074,1.074,0,0,1.0016,1.0072,1.0092,1.017,1.0215,1.0252,1.0296,1.0334,1.0363,1.0431,1.0474,1.0516,1.0581,1.0618,1.0637,1.0653,1.0676,1.0681,1.0677,1.068,1.0701,1.0697,1.0693,1.0739,1.0739,1.074,0,0,0.999,1.0036,1.0061,1.0105,1.0172,1.0219,1.0224,1.0302,1.0332,1.0377,1.0429,1.0464,1.0541,1.0585,1.0617,1.0607,1.0644,1.062,1.0592,1.0609,1.0606,1.0603,1.0599,1.0597,1.0621,1.062,1.062,0,0.9951,1.0008,1.007,1.0104,1.0137,1.02,1.0225,1.0265,1.0344,1.0365,1.0381,1.0478,1.0526,1.0574,1.0571,1.0595,1.0604,1.0611,1.0601,1.0599,1.0598,1.0595,1.0593,1.0617,1.0617,1.0618,1.0618,0,0.9957,0.9996,1.0009,1.0082,1.0116,1.0146,1.0212,1.024,1.0277,1.0322,1.0367,1.0427,1.0486,1.05,1.0538,1.0553,1.0561,1.0588,1.0615,1.0589,1.0587,1.0587,1.0612,1.0613,1.0614,1.0615,0,0,0.9888,0.9995,0.9998,1.0032,1.011,1.0141,1.0174,1.0231,1.0253,1.0305,1.0335,1.0398,1.0423,1.046,1.0502,1.0518,1.0505,1.0544,1.0546,1.0534,1.0526,1.0504,1.0501,1.053,1.053,1.053,1.052,0,0.9873,0.9934,0.999,1.0032,1.0068,1.0128,1.0157,1.0208,1.0251,1.0289,1.0337,1.038,1.0411,1.0433,1.0451,1.0503,1.0504,1.0504,1.0558,1.0559,1.0539,1.0501,1.0478,1.0465,1.0519,1.0519,1.0519,0,0.9864,0.9912,0.9957,1.003,1.0048,1.0072,1.0129,1.0165,1.0224,1.0254,1.0294,1.0339,1.0376,1.04,1.0452,1.0451,1.0477,1.0505,1.0506,1.0513,1.0537,1.0505,1.0462,1.046,1.0519,1.0519,1.0519,0,0.9808,0.9885,0.9921,0.9948,1.0035,1.0051,1.0088,1.0148,1.0178,1.0228,1.0249,1.0302,1.0331,1.0372,1.043,1.0442,1.0476,1.0505,1.0502,1.05,1.0506,1.0505,1.0466,1.0524,1.0524,1.0524,1.0524,0,0.9785,0.981,0.9897,0.9919,0.9948,1.0013,1.004,1.0083,1.0135,1.0167,1.0222,1.0251,1.0326,1.0364,1.041,1.0446,1.0459,1.0484,1.0496,1.0479,1.0475,1.0496,1.0498,1.0523,1.0523,1.0523,1.0523,0,0.9728,0.9787,0.983,0.9909,0.993,0.9947,1.0015,1.0039,1.0085,1.0124,1.0137,1.021,1.0257,1.0319,1.0386,1.0416,1.0447,1.0466,1.0426,1.0433,1.0427,1.0426,1.0399,1.0398,1.0456,1.0456,1.0455,0,0.9709,0.9729,0.9809,0.9834,0.9869,0.9909,0.994,1.0004,1.0034,1.0103,1.0118,1.0169,1.0214,1.0286,1.0345,1.0396,1.0416,1.0403,1.0424,1.0406,1.0415,1.0413,1.0415,1.0398,1.0397,1.0396,1.0395,0,0.9669,0.9697,0.9739,0.9792,0.9827,0.9872,0.9919,0.9936,1.001,1.0041,1.009,1.0124,1.0192,1.0242,1.03,1.034,1.0379,1.0388,1.039,1.0372,1.0348,1.036,1.0411,1.0388,1.0389,1.039,1.039,1.039,0.963,0.965,0.9709,0.9755,0.9797,0.9839,0.9865,0.9914,0.9955,1.0015,1.0051,1.0097,1.0156,1.0239,1.0276,1.0314,1.0329,1.0332,1.0333,1.0332,1.0326,1.0343,1.0325,1.0325,1.0325,1.0325,1.0326,0,0.9591,0.9632,0.9673,0.9737,0.9772,0.9807,0.9861,0.9888,0.9928,0.9979,1.0021,1.0076,1.0125,1.0187,1.024,1.0258,1.0278,1.027,1.0269,1.0277,1.031,1.0302,1.0253,1.0253,1.0253,1.0253,1.0253,1.0253,0.9576,0.9611,0.9647,0.9704,0.9745,0.9791,0.9818,0.9858,0.9899,0.9958,0.9998,1.0038,1.0094,1.0151,1.0197,1.0214,1.0231,1.0217,1.0239,1.0268,1.0275,1.0281,1.0274,1.022,1.022,1.0203,1.0203,1.0203]},{"header":{"parameterUnit":"m.s-1","parameterCategory":1,"la1":30.2991,"la2":30.254,"lo1":-89.0895,"lo2":-89.0444,"dy":0.0017,"dx":0.0017,"nx":28,"ny":28,"refTime":"2024-03-19T21:00:00:Z","depth":0,"parameterNumber":3,"parameterNumberName":"V-component_of_WINDS"},"data":[0,0,0,0,0,0,0,0,0,0,0,0,0,0,0,0,0,0,0,0,0,0,0,0,0,0,0,0,0,0,0,0,0,0,0,0,0,0,0,0,0,0,0,0,0,0,0,0,0,0,0,0,0,0,0,0,0,0,1.1304,1.1304,0,1.1297,1.1297,1.1297,1.1326,1.1327,1.1328,1.1329,1.132,1.1319,1.1318,0,0,0,0,0,0,0,0,0,0,0,0,0,1.1339,1.1338,1.1304,1.1304,1.1304,1.1297,1.1297,1.1297,1.1326,1.1327,1.1328,1.1329,1.132,1.1319,1.1318,0,0,0,0,0,0,0,0,0,0,0,0,0,1.1327,1.1338,1.1304,1.1317,1.1319,1.1297,1.1297,1.1297,1.1326,1.1327,1.1328,1.133,1.1321,1.1319,1.1318,1.1282,0,0,1.1313,1.1312,0,0,0,0,0,0,0,0,1.1328,1.1326,1.1316,1.1316,1.1318,1.1314,1.1306,1.1292,1.1326,1.1323,1.1329,1.133,1.1317,1.1316,1.1311,1.1282,1.1281,1.1313,1.1312,1.1311,1.1311,0,0,0,0,0,0,0,1.1329,1.1326,1.1301,1.1315,1.1317,1.1323,1.1323,1.1304,1.1313,1.1323,1.1325,1.1324,1.1318,1.1313,1.1311,1.1281,1.1313,1.1311,1.131,1.131,1.1219,1.1218,0,0,0,0,0,0,1.1328,1.1327,1.1301,1.1301,1.1326,1.1321,1.1321,1.1314,1.1313,1.1314,1.1323,1.1326,1.1315,1.1313,1.1311,1.1267,1.1311,1.131,1.1309,1.122,1.1219,1.1217,0,0,0,0,0,0,1.1329,1.1325,1.1302,1.1314,1.1312,1.1319,1.1311,1.1313,1.1308,1.1313,1.1314,1.1317,1.1316,1.1313,1.1289,1.1267,1.1309,1.1307,1.1222,1.122,1.1218,1.118,0,0,0,0,0,0,1.1329,1.1325,1.1313,1.1314,1.1311,1.128,1.131,1.1312,1.1306,1.1309,1.1307,1.1308,1.1317,1.1291,1.1287,1.1266,1.1306,1.1224,1.1221,1.1218,1.1183,1.1177,1.1172,0,0,0,0,0,1.1331,1.1303,1.1312,1.1309,1.1295,1.1279,1.1277,1.1288,1.1304,1.129,1.1293,1.1308,1.1271,1.1288,1.1284,1.1262,1.1225,1.1222,1.1219,1.1186,1.1178,1.1172,0,0,0,0,0,0,1.1298,1.1303,1.1313,1.1285,1.1281,1.1284,1.1267,1.1279,1.127,1.1274,1.1287,1.1286,1.1258,1.1258,1.1277,1.1226,1.1251,1.1246,1.1227,1.122,1.1214,1.1214,1.1305,0,0,0,0,0,1.1288,1.1275,1.1279,1.1254,1.1251,1.1259,1.1253,1.1261,1.1257,1.1256,1.1257,1.1252,1.1239,1.123,1.1218,1.1184,1.1183,1.1167,1.1161,1.1156,1.1152,1.1131,1.1123,1.1206,1.1206,1.1206,0,0,1.1266,1.1267,1.1258,1.1247,1.1245,1.123,1.1258,1.1241,1.1229,1.1253,1.1229,1.1229,1.1225,1.1194,1.1181,1.1193,1.1129,1.1152,1.1148,1.1146,1.1127,1.1119,1.1112,1.1204,1.1204,1.1205,0,0,1.1218,1.1219,1.1196,1.1194,1.119,1.1196,1.119,1.1191,1.1192,1.1168,1.1185,1.1171,1.1149,1.1144,1.1138,1.1087,1.11,1.1083,1.1052,1.1031,1.1025,1.1019,1.0998,1.0991,1.1079,1.1079,1.1079,0,1.1191,1.117,1.1183,1.1164,1.1158,1.118,1.1156,1.1153,1.1145,1.114,1.1154,1.1125,1.1124,1.1091,1.1079,1.1075,1.1067,1.1083,1.1025,1.1019,1.1014,1.0994,1.0986,1.1077,1.1077,1.1077,1.1078,0,1.1136,1.112,1.1102,1.1094,1.1087,1.1066,1.1074,1.1065,1.1074,1.1077,1.1052,1.1051,1.1038,1.1031,1.1041,1.0999,1.1007,1.1023,1.1047,1.1003,1.0985,1.0977,1.1074,1.1075,1.1075,1.1076,0,0,1.1066,1.1066,1.1059,1.1054,1.1052,1.104,1.1019,1.1007,1.0997,1.0991,1.0972,1.0953,1.0967,1.0961,1.0969,1.0952,1.0908,1.097,1.097,1.0956,1.0859,1.0845,1.0836,1.0917,1.0916,1.0915,1.0859,0,1.1017,1.0982,1.0993,1.0957,1.0941,1.0961,1.0942,1.0938,1.094,1.0927,1.093,1.0914,1.0936,1.0931,1.0915,1.0917,1.0888,1.0921,1.0897,1.0896,1.0895,1.0827,1.0813,1.076,1.0852,1.0851,1.085,0,1.0955,1.0946,1.0908,1.0906,1.09,1.0884,1.0872,1.086,1.0855,1.0858,1.085,1.0862,1.0839,1.0865,1.0834,1.0856,1.0847,1.0846,1.0844,1.084,1.0869,1.0819,1.0744,1.0734,1.0839,1.084,1.0841,0,1.0904,1.0884,1.0858,1.0854,1.0852,1.0839,1.0838,1.0834,1.0825,1.0815,1.0809,1.0797,1.079,1.0779,1.0786,1.0805,1.0752,1.0779,1.0752,1.0751,1.0738,1.0738,1.0657,1.0736,1.0737,1.0737,1.0737,0,1.0847,1.0822,1.0835,1.0818,1.0791,1.0803,1.0775,1.0776,1.0772,1.0755,1.0772,1.0756,1.0768,1.0752,1.0757,1.0728,1.0726,1.0726,1.0727,1.0722,1.0722,1.0715,1.0718,1.0735,1.0735,1.0736,1.0736,0,1.0785,1.0793,1.0765,1.0766,1.0765,1.0744,1.0744,1.0728,1.0732,1.071,1.0705,1.0711,1.0693,1.0699,1.068,1.0684,1.0646,1.0654,1.0648,1.0648,1.0619,1.0621,1.0529,1.0516,1.0606,1.0605,1.0605,0,1.0747,1.0728,1.0726,1.0716,1.0713,1.0697,1.0688,1.07,1.069,1.0681,1.0666,1.0649,1.0636,1.0606,1.0607,1.0592,1.0598,1.0567,1.0595,1.0591,1.0593,1.0593,1.059,1.056,1.0559,1.0558,1.0557,0,1.0676,1.0681,1.0668,1.0655,1.0644,1.0635,1.0627,1.0618,1.0629,1.0616,1.0598,1.0588,1.0568,1.055,1.0536,1.0533,1.0546,1.0549,1.0541,1.0535,1.0531,1.0529,1.0629,1.055,1.0551,1.0551,1.0552,1.0552,1.0623,1.0606,1.0602,1.0586,1.0581,1.0573,1.0558,1.0559,1.0545,1.0529,1.0537,1.0515,1.0508,1.0491,1.0486,1.0468,1.048,1.0469,1.0466,1.0462,1.0457,1.0536,1.0466,1.0466,1.0466,1.0466,1.0467,0,1.0551,1.0549,1.0535,1.0523,1.051,1.0525,1.0516,1.0504,1.0484,1.0478,1.0464,1.0442,1.0425,1.0425,1.0408,1.0393,1.0398,1.0388,1.0388,1.0386,1.0449,1.0456,1.0384,1.0384,1.0384,1.0384,1.0384,1.0384,1.0512,1.0484,1.0487,1.0456,1.0454,1.0433,1.0427,1.0418,1.0413,1.0387,1.0373,1.0373,1.0368,1.0351,1.0335,1.0336,1.0327,1.0314,1.0316,1.0374,1.0382,1.039,1.0397,1.0313,1.0313,1.0255,1.0254,1.0254]}]]